FW9519 Weather Reports


time (UTC)temp
F
wind
direction
speed
knots
gust
knots
rain 1hr
in
rain 24hr
in
rain mn
in
humidity
%
barometer
mb
20260503203145 86 67 1.7 7.0 0.00 0.00 0.00 35 1013.6
20260503201530 85 73 0.0 4.3 0.00 0.00 0.00 37 1013.7
20260503194530 85 36 0.9 4.3 0.00 0.00 0.00 40 1014.1
20260503193031 84 64 0.0 2.6 0.00 0.00 0.00 42 1014.3
20260503191530 83 50 0.0 3.5 0.00 0.00 0.00 45 1014.5
20260503190030 82 75 0.0 4.3 0.00 0.00 0.00 43 1014.7
20260503180030 78 38 0.0 3.5 0.00 0.00 0.00 46 1015.3
20260503174531 78 32 0.0 2.6 0.00 0.00 0.00 46 1015.5
20260503173030 78 27 0.0 2.6 0.00 0.00 0.00 46 1015.7
20260503171529 76 35 0.0 2.6 0.00 0.00 0.00 51 1015.7
20260503170107 75 75 0.0 0.9 0.00 0.00 0.00 50 1015.8
20260503140145 49 160 0.0 1.7 0.00 0.00 0.00 92 1016.3
20260503130145 47 189 0.0 2.6 0.00 0.00 0.00 92 1016.0
20260503081526 54 169 0.9 2.6 0.00 0.00 0.00 88 1015.7
20260503071531 55 174 0.0 1.7 0.00 0.00 0.00 87 1015.8
20260503054532 59 176 0.0 2.6 0.00 0.00 0.00 84 1015.6
20260503053026 59 184 0.0 1.7 0.00 0.00 0.00 83 1015.7
20260503051530 60 189 0.0 1.7 0.00 0.00 0.00 83 1015.6
20260503050031 60 155 0.0 1.7 0.00 0.00 0.00 83 1015.5
20260503044529 61 135 0.0 2.6 0.00 0.00 0.00 82 1015.4
20260503043106 62 90 0.0 0.0 0.00 0.00 0.00 81 1015.2
20260503041529 63 208 0.0 0.0 0.00 0.00 0.00 79 1015.0
20260503040035 64 225 0.0 0.9 0.00 0.00 0.00 75 1014.7
20260503034531 65 225 0.0 0.0 0.00 0.00 0.00 78 1014.5
20260503033146 66 184 0.0 1.7 0.00 0.00 0.00 77 1014.1
20260503031529 68 127 0.0 1.7 0.00 0.00 0.00 72 1013.7
20260503024604 70 67 0.0 0.0 0.00 0.00 0.00 69 1013.3
20260503023030 72 67 0.0 0.0 0.00 0.00 0.00 67 1013.2
20260503021647 73 67 0.0 0.0 0.00 0.00 0.00 66 1013.0
20260503020035 75 67 0.0 0.0 0.00 0.00 0.00 65 1012.9
20260503014529 76 67 0.0 0.0 0.00 0.00 0.00 60 1012.9
20260503013104 77 67 0.0 0.0 0.00 0.00 0.00 55 1012.9
20260503011530 78 63 0.0 1.7 0.00 0.00 0.00 56 1012.9
20260503010032 79 67 0.0 0.0 0.00 0.00 0.00 54 1012.9
20260503004528 82 61 0.0 2.6 0.00 0.00 0.00 50 1012.9
20260503003030 84 41 0.0 0.9 0.00 0.00 0.00 44 1012.9
20260503000145 84 151 0.0 0.9 0.00 0.00 0.00 38 1013.0
20260502234532 83 161 0.0 2.6 0.00 0.00 0.00 40 1013.2
20260502233032 84 257 0.0 2.6 0.00 0.00 0.00 41 1013.4
20260502230032 82 292 0.0 1.7 0.00 0.00 0.00 43 1013.7
20260502223031 83 38 0.0 1.7 0.00 0.00 0.00 43 1014.2
20260502220029 78 3 0.0 1.7 0.00 0.00 0.00 49 1014.7
20260502214532 76 207 0.0 4.3 0.00 0.00 0.00 54 1014.9
20260502211530 75 66 0.0 2.6 0.00 0.00 0.00 57 1015.2
20260502204532 72 25 0.0 2.6 0.00 0.00 0.00 62 1015.6